This is the latest recevied weather packets stored in our database for station/object K0PFX-8. If no packets are shown the sender has not sent any weather packets the latest 10 day(s).
| Time | Temp. | Humidity | Pressure | Rain* | Wind** | Luminosity | Snow |
|---|---|---|---|---|---|---|---|
| 1778175228 | 16.11° C | 33% | 1017.1 hPa | 0 mm | 5.81 m/s, 231° | - | - |
| 1778174330 | 16.67° C | 37% | 1017.2 hPa | 0 mm | 4.02 m/s, 280° | - | - |
| 1778173429 | 16.11° C | 32% | 1017.6 hPa | 0 mm | 4.02 m/s, 250° | - | - |
| 1778172531 | 15.56° C | 35% | 1017.9 hPa | 0 mm | 4.02 m/s, 243° | - | - |
| 1778171630 | 15.56° C | 27% | 1018 hPa | 0 mm | 4.02 m/s, 233° | - | - |
| 1778170732 | 15.56° C | 36% | 1018.1 hPa | 0 mm | 3.13 m/s, 259° | - | - |
| 1778169831 | 15° C | 39% | 1018.2 hPa | 0 mm | 5.36 m/s, 236° | - | - |
| 1778168932 | 14.44° C | 40% | 1018.4 hPa | 0 mm | 2.24 m/s, 243° | - | - |
| 1778168031 | 14.44° C | 40% | 1018.6 hPa | 0 mm | 3.58 m/s, 240° | - | - |
| 1778167133 | 13.89° C | 44% | 1018.8 hPa | 0 mm | 1.34 m/s, 239° | - | - |
| 1778166232 | 13.89° C | 47% | 1018.9 hPa | 0 mm | 3.58 m/s, 231° | - | - |
| 1778165334 | 13.89° C | 48% | 1019.2 hPa | 0 mm | 3.13 m/s, 242° | - | - |
| 1778164433 | 12.78° C | 50% | 1019.3 hPa | 0 mm | 3.58 m/s, 243° | - | - |
| 1778163535 | 12.78° C | 51% | 1019.5 hPa | 0 mm | 2.24 m/s, 194° | - | - |
| 1778162634 | 12.22° C | 52% | 1019.5 hPa | 0 mm | 2.68 m/s, 245° | - | - |
| 1778161736 | 12.22° C | 54% | 1019.5 hPa | 0 mm | 2.24 m/s, 236° | - | - |
| 1778160835 | 11.11° C | 59% | 1019.5 hPa | 0 mm | 2.24 m/s, 214° | - | - |
| 1778159937 | 9.44° C | 75% | 1019.5 hPa | 0 mm | 2.24 m/s, 239° | - | - |
| 1778159035 | 8.33° C | 82% | 1019.5 hPa | 0 mm | 1.79 m/s, 239° | - | - |
| 1778158137 | 7.78° C | 99% | 1019.5 hPa | 0 mm | 0 m/s | - | - |
| 1778157236 | 6.67° C | 100% | 1019.4 hPa | 0 mm | 0 m/s | - | - |
| 1778156338 | 6.11° C | 100% | 1019.3 hPa | 0 mm | 0 m/s | - | - |
| 1778155437 | 5.56° C | 100% | 1019.2 hPa | 0 mm | 0 m/s | - | - |
| 1778154538 | 5° C | 100% | 1019.1 hPa | 0 mm | 0 m/s | - | - |
| 1778153637 | 5° C | 100% | 1019 hPa | 0 mm | 0 m/s | - | - |
* Rain latest hour (hover to see other rain measurements)
** Current wind speed in m/s (hover to see current wind gust speed)